Weather History for Sanford, NC

Change the Weather History Date:

Sunday, March 31, 2013

  Actual Average (KRDU) Record (KRDU)
Temperature  
Mean Temperature 56 °F 56 °F  
Max Temperature 69 °F 68 °F 88 °F (1910)
Min Temperature 44 °F 44 °F 23 °F (1964)
Degree Days  
Heating Degree Days 8 10  
Month to date heating degree days 425  
Since 1 July heating degree days 2996  
Cooling Degree Days 0 1  
Month to date cooling degree days 11  
Year to date cooling degree days 12  
Growing Degree Days 6 (Base 50)    
Moisture  
Dew Point 51 °F    
Average Humidity 81    
Maximum Humidity 97    
Minimum Humidity 55    
Precipitation  
Precipitation 0.25 in 0.12 in 1.53 in (1962)
Month to date precipitation 4.11  
Year to date precipitation 10.84  
Snow  
Snow 0.00 in 0.00 in 3.60 in (1915)
Month to date snowfall 0.5  
Since 1 July snowfall 6.0  
Snow Depth -    
Sea Level Pressure  
Sea Level Pressure 29.93 in    
Wind  
Wind Speed 3 mph (SW)    
Max Wind Speed 15 mph    
Max Gust Speed 22 mph    
Visibility 9 miles    
Events Rain    
T = Trace of Precipitation, MM = Missing Value Source: NWS Daily Summary

Daily Weather History Graph

Daily Weather History Graph

Search for Another Location

Airport:

Trip Planner

Search our weather history database for the weather conditions in past years. The results will help you decide how hot, cold, wet, or windy it might be!

Date:

Astronomy

Mar. 31, 2013 Rise Set
Actual Time 7:04 AM EDT 7:37 PM EDT
Civil Twilight 6:38 AM EDT 8:03 PM EDT
Nautical Twilight 6:08 AM EDT 8:33 PM EDT
Astronomical Twilight 5:37 AM EDT 9:04 PM EDT
Moon No Moon Rise 9:58 AM EDT (3/31)
Length of Visible Light 13h 24m
Length of Day
12h 33m
Waning Gibbous, 78% of the Moon is Illuminated
Mar 31
Waning Gibbous
Apr 3
Last Quarter
Apr 10
New
Apr 18
First Quarter
Apr 25
Full

Hourly Weather History & Observations

Time (EDT) Temp. Windchill Dew Point Humidity Pressure Visibility Wind Dir Wind Speed Gust Speed Precip Events Conditions
12:15 AM 45.9 °F - 41.2 °F 84% 30.11 in 10.0 mi Calm Calm - N/A   Clear
12:35 AM 46.8 °F - 41.7 °F 83% 30.11 in 10.0 mi Calm Calm - N/A   Clear
12:55 AM 48.9 °F - 43.7 °F 82% 30.10 in 10.0 mi Calm Calm - N/A   Clear
1:15 AM 46.8 °F - 41.9 °F 83% 30.09 in 10.0 mi Calm Calm - N/A   Clear
1:35 AM 48.7 °F - 43.9 °F 83% 30.09 in 10.0 mi Calm Calm - N/A   Clear
1:55 AM 48.2 °F - 43.7 °F 84% 30.08 in 10.0 mi Calm Calm - N/A   Clear
2:15 AM 47.3 °F - 42.6 °F 84% 30.07 in 10.0 mi Calm Calm - N/A   Clear
2:35 AM 47.5 °F - 43.3 °F 86% 30.07 in 10.0 mi Calm Calm - N/A   Clear
2:55 AM 46.4 °F - 42.4 °F 86% 30.06 in 10.0 mi Calm Calm - N/A   Clear
3:15 AM 45.3 °F - 42.1 °F 88% 30.05 in 10.0 mi Calm Calm - N/A   Clear
3:35 AM 44.8 °F 43.3 °F 41.9 °F 90% 30.04 in 10.0 mi NNE 3.5 mph - N/A   Clear
3:55 AM 45.9 °F - 43.3 °F 91% 30.03 in 10.0 mi Calm Calm - N/A   Scattered Clouds
4:15 AM 45.5 °F - 43.2 °F 92% 30.01 in 10.0 mi Calm Calm - N/A   Mostly Cloudy
4:35 AM 48.0 °F - 44.6 °F 88% 30.01 in 10.0 mi Calm Calm - N/A   Overcast
4:55 AM 48.7 °F - 44.2 °F 84% 29.99 in 10.0 mi Calm Calm - N/A   Overcast
5:15 AM 50.0 °F - 43.2 °F 77% 29.98 in 10.0 mi Calm Calm - N/A   Overcast
5:35 AM 50.0 °F - 43.7 °F 79% 29.99 in 10.0 mi Calm Calm - N/A   Overcast
6:15 AM 49.8 °F - 45.5 °F 85% 30.01 in 10.0 mi Calm Calm - 0.01 in Rain Light Rain
6:35 AM 48.2 °F - 45.7 °F 91% 30.01 in 3.0 mi Calm Calm - 0.03 in Rain Heavy Rain
6:55 AM 47.8 °F - 46.4 °F 95% 30.00 in 4.0 mi Calm Calm - 0.07 in Rain Heavy Rain
7:15 AM 48.2 °F - 46.6 °F 94% 30.00 in 4.0 mi Calm Calm - 0.06 in Rain Rain
7:35 AM 48.0 °F - 46.8 °F 95% 29.99 in 4.0 mi Calm Calm - 0.10 in Rain Heavy Rain
7:55 AM 48.2 °F - 46.9 °F 95% 29.98 in 4.0 mi SE 4.6 mph - 0.15 in Rain Heavy Rain
8:15 AM 48.4 °F - 47.3 °F 96% 29.97 in 3.0 mi SE 3.5 mph - 0.01 in Rain Rain
8:35 AM 49.1 °F - 48.2 °F 97% 29.97 in 3.0 mi Calm Calm - 0.01 in   Drizzle
8:55 AM 49.6 °F - 48.7 °F 97% 29.97 in 3.0 mi Calm Calm - 0.02 in Rain Rain
9:15 AM 50.7 °F - 49.8 °F 97% 29.96 in 3.0 mi SSE 3.5 mph - N/A Rain Light Rain
9:35 AM 51.8 °F - 50.5 °F 95% 29.95 in 5.0 mi SSE 4.6 mph - N/A   Light Drizzle
10:15 AM 54.7 °F - 52.9 °F 94% 29.93 in 10.0 mi South 5.8 mph - N/A   Overcast
10:35 AM 57.9 °F - 54.3 °F 88% 29.93 in 10.0 mi SSW 9.2 mph - N/A   Overcast
10:55 AM 58.8 °F - 54.0 °F 84% 29.93 in 10.0 mi South 6.9 mph - N/A   Overcast
11:15 AM 60.8 °F - 54.5 °F 80% 29.92 in 10.0 mi South 9.2 mph - N/A   Overcast
11:35 AM 62.2 °F - 55.0 °F 77% 29.92 in 10.0 mi SSW 8.1 mph - N/A   Mostly Cloudy
11:55 AM 64.8 °F - 54.3 °F 69% 29.91 in 10.0 mi SW 9.2 mph - N/A   Mostly Cloudy
12:15 PM 64.2 °F - 53.1 °F 67% 29.91 in 10.0 mi SW 15.0 mph 19.6 mph N/A   Overcast
12:35 PM 63.9 °F - 53.1 °F 68% 29.90 in 10.0 mi SW 10.4 mph 16.1 mph N/A   Overcast
12:55 PM 65.3 °F - 54.0 °F 67% 29.90 in 10.0 mi SW 13.8 mph 19.6 mph N/A   Overcast
1:15 PM 65.7 °F - 53.8 °F 65% 29.88 in 10.0 mi SW 9.2 mph 18.4 mph N/A   Mostly Cloudy
1:35 PM 65.1 °F - 53.8 °F 67% 29.88 in 10.0 mi SSW 11.5 mph 21.9 mph N/A   Overcast
1:55 PM 66.2 °F - 54.1 °F 65% 29.87 in 10.0 mi SW 12.7 mph 16.1 mph N/A   Overcast
2:15 PM 65.7 °F - 53.8 °F 65% 29.87 in 10.0 mi SW 13.8 mph 19.6 mph N/A   Overcast
2:35 PM 66.2 °F - 53.8 °F 64% 29.87 in 10.0 mi SW 10.4 mph 18.4 mph N/A   Overcast
2:55 PM 66.4 °F - 53.8 °F 64% 29.86 in 10.0 mi SW 12.7 mph 20.7 mph N/A   Overcast
3:15 PM 67.3 °F - 54.1 °F 63% 29.84 in 10.0 mi WSW 10.4 mph - N/A   Overcast
3:35 PM 67.8 °F - 53.8 °F 61% 29.83 in 10.0 mi SW 9.2 mph 18.4 mph N/A   Mostly Cloudy
3:55 PM 68.7 °F - 54.0 °F 59% 29.83 in 10.0 mi WSW 8.1 mph - N/A   Mostly Cloudy
4:15 PM 69.1 °F - 53.6 °F 58% 29.83 in 10.0 mi SW 11.5 mph 18.4 mph N/A   Mostly Cloudy
4:35 PM 68.0 °F - 53.2 °F 59% 29.84 in 10.0 mi WSW 8.1 mph 17.3 mph N/A   Overcast
4:55 PM 68.9 °F - 53.4 °F 58% 29.83 in 10.0 mi WSW 8.1 mph 18.4 mph N/A   Mostly Cloudy
5:15 PM 69.8 °F - 53.4 °F 56% 29.83 in 10.0 mi SW 9.2 mph - N/A   Scattered Clouds
5:35 PM 69.3 °F - 52.9 °F 56% 29.82 in 10.0 mi WSW 8.1 mph - N/A   Mostly Cloudy
5:55 PM 68.9 °F - 52.3 °F 55% 29.82 in 10.0 mi WSW 4.6 mph - N/A   Mostly Cloudy
6:15 PM 64.9 °F - 56.1 °F 73% 29.83 in 7.0 mi SSW 5.8 mph - 0.01 in Rain Light Rain
6:35 PM 63.5 °F - 57.9 °F 82% 29.83 in 10.0 mi Calm Calm - 0.01 in   Scattered Clouds
7:15 PM 62.6 °F - 58.3 °F 86% 29.83 in 10.0 mi Calm Calm - N/A   Scattered Clouds
7:35 PM 61.5 °F - 57.9 °F 88% 29.82 in 10.0 mi Calm Calm - N/A   Mostly Cloudy
7:55 PM 60.6 °F - 58.3 °F 92% 29.82 in 10.0 mi Calm Calm - N/A   Mostly Cloudy
8:15 PM 59.9 °F - 58.1 °F 94% 29.82 in 10.0 mi Calm Calm - N/A   Mostly Cloudy
8:35 PM 60.3 °F - 58.6 °F 94% 29.83 in 10.0 mi North 4.6 mph - N/A   Light Drizzle
8:55 PM 60.3 °F - 58.6 °F 94% 29.85 in 10.0 mi NW 9.2 mph - N/A   Light Drizzle
9:15 PM 60.3 °F - 54.0 °F 80% 29.86 in 10.0 mi WNW 6.9 mph - N/A   Mostly Cloudy
9:35 PM 59.4 °F - 53.6 °F 81% 29.86 in 10.0 mi Calm Calm - N/A   Mostly Cloudy
9:55 PM 59.2 °F - 53.8 °F 82% 29.86 in 10.0 mi Calm Calm - N/A   Overcast
10:15 PM 57.2 °F - 53.8 °F 88% 29.86 in 10.0 mi Calm Calm - N/A   Mostly Cloudy
10:35 PM 55.9 °F - 53.6 °F 92% 29.87 in 10.0 mi Calm Calm - N/A   Mostly Cloudy
10:55 PM 55.2 °F - 53.2 °F 93% 29.86 in 10.0 mi Calm Calm - N/A   Scattered Clouds
11:15 PM 54.9 °F - 53.1 °F 94% 29.86 in 10.0 mi Calm Calm - N/A   Scattered Clouds
11:35 PM 53.8 °F - 52.3 °F 95% 29.86 in 5.0 mi Calm Calm - N/A   Scattered Clouds
11:55 PM 53.1 °F - 51.8 °F 95% 29.86 in 0.8 mi Calm Calm - N/A   Mist